Spokane Fairchild, WA
on Sunday, November 25, 2012

Sunday
Previous Day Next Day
Daily Summary
 ActualAverage (KGEG)Record (KGEG)
Temperature
Mean Temperature °F 32°F  
Max Temperature 37°F 37°F 57°F (1914)
Min Temperature 23°F 27°F -3°F (1985)
Degree Days
Heating Degree Days 35 33  
Month to date heating degree days 709  
Since 1 July heating degree days 1497  
Cooling Degree Days 0 0  
Month to date cooling degree days 0  
Year to date cooling degree days 450  
Moisture
Dew Point 31°F   
Average Humidity 100    
Maximum Humidity 100    
Minimum Humidity 100    
Precipitation
Precipitation 0.00 in 0.09 in 0.67 in (1977)
Month to date precipitation 1.88  
Year to date precipitation 13.84  
Snow
Snow 0.00 in 0.30 in 5.70 in (1931)
Month to date snowfall 5.4  
Since 1 July snowfall 5.5  
Since 1 September snowfall 5.5  
Snow Depth in   
Wind
Wind Speed 3 mph   
Max Wind Speed 6 mph   
Max Gust Speed mph   
Visibility 7 miles   
Events Fog , Rain   

Key: T is trace of precipitation, MM is missing value
Source: NWS Daily Summary
Time(PST)TemperatureDew PointHumidity Pressure Visibility Wind DirectionWind SpeedGust SpeedPrecipitationEvents Conditions
12:03 AM 32.0°F 32.0°F 100% 30.10 in 0.5 miles NW 4.6 mph - N/A Fog Light Freezing Fog
12:21 AM 32.0°F 32.0°F 100% 30.09 in 0.5 miles NNW 3.5 mph - N/A Fog Light Freezing Fog
12:31 AM 32.0°F 32.0°F 100% 30.09 in 0.5 miles Calm Calm - N/A Fog Light Freezing Fog
12:36 AM 32.0°F 32.0°F 100% 30.09 in 0.5 miles Calm Calm - N/A Fog Light Freezing Fog
12:41 AM 32.0°F 32.0°F 100% 30.09 in 0.8 miles Calm Calm - N/A   Mist
12:46 AM 32.0°F 32.0°F 100% 30.09 in 0.5 miles Calm Calm - N/A Fog Light Freezing Fog
12:51 AM 32.0°F 32.0°F 100% 30.09 in 0.5 miles Calm Calm - N/A Fog Light Freezing Fog
12:58 AM 32.0°F 32.0°F 100% 30.16 in 0.5 miles WNW 1.2 mph - 0.00 in Fog Light Freezing Fog
1:08 AM 32.0°F 32.0°F 100% 30.09 in 0.5 miles West 2.3 mph - N/A Fog Light Freezing Fog
1:42 AM 32.0°F 32.0°F 100% 30.10 in 0.5 miles WNW 4.6 mph - N/A Fog Light Freezing Drizzle
1:47 AM 32.0°F 32.0°F 100% 30.10 in 0.5 miles West 4.6 mph - N/A Fog Light Freezing Drizzle
1:57 AM 32.0°F 32.0°F 100% 30.10 in 0.5 miles West 4.6 mph - N/A Fog , Rain Light Freezing Rain
1:58 AM 31.6°F 31.6°F 100% 30.17 in 0.5 miles West 4.6 mph - 0.00 in Fog , Rain Light Freezing Rain
2:33 AM 32.0°F 32.0°F 100% 30.10 in 0.5 miles West 4.6 mph - N/A Fog Light Freezing Fog
2:38 AM 32.0°F 32.0°F 100% 30.10 in 0.8 miles WNW 5.8 mph - N/A   Mist
2:43 AM 32.0°F 32.0°F 100% 30.10 in 0.8 miles WNW 4.6 mph - N/A   Mist
2:48 AM 32.0°F 32.0°F 100% 30.10 in 0.5 miles West 4.6 mph - N/A Fog Light Freezing Fog
2:58 AM 32.0°F 32.0°F 100% 30.18 in 0.8 miles WNW 5.8 mph - 0.00 in   Mist
3:03 AM 32.0°F 32.0°F 100% 30.11 in 1.0 miles West 5.8 mph - N/A   Mist
3:08 AM 32.0°F 32.0°F 100% 30.11 in 1.5 miles West 4.6 mph - N/A   Overcast
3:13 AM 32.0°F 32.0°F 100% 30.10 in 1.5 miles WSW 3.5 mph - N/A   Overcast
3:18 AM 32.0°F 32.0°F 100% 30.11 in 1.2 miles West 4.6 mph - N/A   Overcast
3:23 AM 32.0°F 32.0°F 100% 30.11 in 1.5 miles West 3.5 mph - N/A   Overcast
3:28 AM 32.0°F 32.0°F 100% 30.11 in 2.0 miles West 4.6 mph - N/A   Overcast
3:33 AM 32.0°F 32.0°F 100% 30.11 in 5.0 miles West 3.5 mph - N/A   Overcast
3:58 AM 32.0°F 32.0°F 100% 30.18 in 10.0 miles WNW 3.5 mph - N/A   Overcast
4:28 AM 32.0°F 32.0°F 100% 30.12 in 10.0 miles WSW 3.5 mph - N/A   Overcast
4:50 AM 32.0°F 32.0°F 100% 30.12 in 10.0 miles SW 3.5 mph - N/A   Overcast
4:58 AM 32.2°F 32.2°F 100% 30.19 in 10.0 miles SW 4.6 mph - 0.00 in   Overcast
5:03 AM 32.0°F 32.0°F 100% 30.12 in 10.0 miles SW 4.6 mph - N/A   Overcast
5:04 AM 32.0°F 32.0°F 100% 30.12 in 10.0 miles SW 4.6 mph - N/A   Overcast
5:12 AM 32.0°F 32.0°F 100% 30.13 in 10.0 miles SW 4.6 mph - N/A   Overcast
5:17 AM 32.0°F 32.0°F 100% 30.13 in 10.0 miles SW 5.8 mph - N/A   Overcast
5:18 AM 32.0°F 32.0°F 100% 30.12 in 10.0 miles SW 4.6 mph - N/A   Overcast
5:35 AM 32.0°F 32.0°F 100% 30.13 in 10.0 miles West 5.8 mph - N/A   Overcast
5:38 AM 32.0°F 32.0°F 100% 30.13 in 10.0 miles WSW 5.8 mph - N/A   Overcast
5:43 AM 32.0°F 32.0°F 100% 30.13 in 10.0 miles WSW 4.6 mph - N/A   Overcast
5:58 AM 32.2°F 32.2°F 100% 30.21 in 10.0 miles WNW 4.6 mph - 0.00 in   Overcast
6:08 AM 32.0°F 32.0°F 100% 30.14 in 10.0 miles West 3.5 mph - N/A   Overcast
6:23 AM 32.0°F 32.0°F 100% 30.15 in 10.0 miles NW 2.3 mph - N/A   Overcast
6:46 AM 32.0°F 32.0°F 100% 30.15 in 10.0 miles WSW 3.5 mph - N/A   Overcast
6:51 AM 32.0°F 32.0°F 100% 30.15 in 10.0 miles WSW 5.8 mph - N/A   Overcast
6:58 AM 31.8°F 31.8°F 100% 30.22 in 10.0 miles SW 4.6 mph - 0.00 in   Overcast
7:18 AM 32.0°F 32.0°F 100% 30.16 in 10.0 miles WSW 4.6 mph - N/A   Overcast
7:26 AM 32.0°F 32.0°F 100% 30.16 in 10.0 miles SW 4.6 mph - N/A   Overcast
7:58 AM 31.6°F 31.6°F 100% 30.24 in 10.0 miles WSW 3.5 mph - 0.00 in   Overcast
8:08 AM 32.0°F 32.0°F 100% 30.17 in 10.0 miles SSW 2.3 mph - N/A   Overcast
8:33 AM 32.0°F 32.0°F 100% 30.18 in 10.0 miles Calm Calm - N/A   Overcast
8:51 AM 32.0°F 32.0°F 100% 30.19 in 10.0 miles South 4.6 mph - N/A   Overcast
8:58 AM 31.3°F 31.3°F 100% 30.27 in 10.0 miles SSE 2.3 mph - 0.00 in   Overcast
9:20 AM 32.0°F 32.0°F 100% 30.20 in 10.0 miles South 2.3 mph - N/A   Overcast
9:27 AM 32.0°F 32.0°F 100% 30.20 in 10.0 miles Variable 1.2 mph - N/A   Overcast
9:37 AM 32.0°F 32.0°F 100% 30.20 in 10.0 miles WSW 2.3 mph - N/A   Overcast
9:58 AM 31.8°F 31.8°F 100% 30.28 in 10.0 miles SW 5.8 mph - 0.00 in   Overcast
10:07 AM 32.0°F 32.0°F 100% 30.21 in 10.0 miles West 4.6 mph - N/A   Overcast
10:38 AM 32.0°F 32.0°F 100% 30.21 in 10.0 miles SW 4.6 mph - N/A   Overcast
10:47 AM 32.0°F 32.0°F 100% 30.21 in 10.0 miles West 4.6 mph - N/A   Overcast
10:58 AM 32.2°F 32.2°F 100% 30.29 in 10.0 miles West 4.6 mph - 0.00 in   Overcast
11:03 AM 32.0°F 32.0°F 100% 30.21 in 10.0 miles WSW 4.6 mph - N/A   Overcast
11:08 AM 32.0°F 32.0°F 100% 30.21 in 10.0 miles West 5.8 mph - N/A   Overcast
11:58 AM 32.5°F 32.5°F 100% 30.30 in 10.0 miles Variable 2.3 mph - N/A   Overcast
12:28 PM 32.0°F 32.0°F 100% 30.22 in 10.0 miles Variable 1.2 mph - N/A   Scattered Clouds
12:37 PM 32.0°F 32.0°F 100% 30.22 in 10.0 miles WNW 2.3 mph - N/A   Partly Cloudy
12:57 PM 33.8°F 33.8°F 100% 30.23 in 10.0 miles WNW 1.2 mph - N/A   Clear
12:58 PM 33.6°F 33.6°F 100% 30.30 in 10.0 miles Variable 1.2 mph - 0.00 in   Clear
1:34 PM 33.8°F 33.8°F 100% 30.22 in 10.0 miles Variable 2.3 mph - N/A   Scattered Clouds
1:45 PM 33.8°F 33.8°F 100% 30.22 in 10.0 miles Variable 1.2 mph - N/A   Partly Cloudy
1:58 PM 34.3°F 34.3°F 100% 30.30 in 10.0 miles Calm Calm - 0.00 in   Partly Cloudy
2:13 PM 35.6°F 35.6°F 100% 30.23 in 10.0 miles West 4.6 mph - N/A   Clear
2:20 PM 35.6°F 35.6°F 100% 30.23 in 10.0 miles SW 2.3 mph - N/A   Clear
2:58 PM 37.0°F 37.0°F 100% 30.31 in 10.0 miles West 2.3 mph - 0.00 in   Clear
3:08 PM 35.6°F 35.6°F 100% 30.24 in 10.0 miles WSW 3.5 mph - N/A   Clear
3:19 PM 35.6°F 35.6°F 100% 30.25 in 10.0 miles WSW 2.3 mph - N/A   Clear
3:58 PM 35.4°F 35.4°F 100% 30.32 in 10.0 miles WSW 3.5 mph - 0.00 in   Clear
4:58 PM 30.6°F 30.6°F 100% 30.33 in 10.0 miles West 3.5 mph - N/A   Clear
5:58 PM 29.5°F 29.5°F 100% 30.34 in 10.0 miles Variable 2.3 mph - N/A   Clear
6:37 PM 28.4°F 28.4°F 100% 30.27 in 10.0 miles WSW 2.3 mph - N/A   Clear
6:55 PM 28.4°F 28.4°F 100% 30.28 in 10.0 miles SSE 4.6 mph - N/A   Clear
6:57 PM 28.4°F 28.4°F 100% 30.28 in 10.0 miles SSE 3.5 mph - N/A   Clear
6:58 PM 28.6°F 28.6°F 100% 30.37 in 10.0 miles SSE 3.5 mph - 0.00 in   Clear
7:06 PM 26.6°F 26.6°F 100% 30.28 in 10.0 miles South 2.3 mph - N/A   Clear
7:58 PM 29.3°F 29.3°F 100% 30.37 in 10.0 miles Variable 2.3 mph - 0.00 in   Clear
8:58 PM 28.6°F 28.6°F 100% 30.37 in 10.0 miles Calm Calm - N/A   Clear
8:59 PM 28.4°F 28.4°F 100% 30.28 in 10.0 miles Calm Calm - N/A   Clear
9:19 PM 28.4°F 28.4°F 100% 30.28 in 10.0 miles North 2.3 mph - N/A   Clear
9:35 PM 28.4°F 28.4°F 100% 30.28 in 10.0 miles WNW 2.3 mph - N/A   Clear
9:58 PM 26.2°F 26.2°F 100% 30.38 in 10.0 miles WNW 3.5 mph - 0.00 in   Clear
10:08 PM 26.6°F 26.6°F 100% 30.30 in 10.0 miles NW 2.3 mph - N/A   Clear
10:58 PM 24.8°F 24.8°F 100% 30.38 in 10.0 miles East 2.3 mph - 0.00 in   Clear
11:18 PM 26.6°F 26.6°F 100% 30.30 in 8.0 miles NE 3.5 mph - N/A   Clear
11:28 PM 26.6°F 26.6°F 100% 30.30 in 10.0 miles NE 5.8 mph - N/A   Clear
11:33 PM 24.8°F 24.8°F 100% 30.29 in 1.2 miles NE 5.8 mph - N/A   Clear
11:38 PM 24.8°F 24.8°F 100% 30.29 in 0.5 miles NNE 4.6 mph - N/A Fog Light Freezing Fog
11:53 PM 23.0°F 23.0°F 100% 30.29 in 0.8 miles NNE 4.6 mph - N/A   Clear
11:58 PM 23.9°F 23.9°F 100% 30.38 in 0.8 miles NNE 4.6 mph - N/A   Clear
Moon Phase
Nov. 25 Nov. 28 Dec. 06 Dec. 13 Dec. 20
Sunrise:07:10 AM (PST) Moon Rise:02:30 PM (PST)11/25
Sunset:04:04 PM (PST) Moon Set:04:21 AM (PST)11/25

Copyright © 2014 The Weather Underground, Inc.